Probability
0 19 48 61 65 58 61 68 58 55 61 65 71 74 61 61 65 61 58 71 71 68 71 71 61 61 58 68 74 77 71 65 61 61 65 65 68 71 68 65 52 32 58
3 26 52 65 61 65 68 68 61 58 58 58 68 71 65 65 61 55 65 68 71 65 68 68 71 65 65 65 74 74 74 71 61 68 58 61 61 65 65 42 39 32 52
16 26 55 58 61 61 65 68 65 65 61 58 71 71 71 74 71 58 61 58 71 68 65 71 71 68 68 61 74 74 68 71 65 65 61 45 48 58 68 45 39 52 52
16 19 39 58 65 61 65 65 65 65 61 58 68 65 65 65 65 65 65 55 55 58 61 61 65 61 65 61 68 61 55 58 58 58 42 32 26 45 55 52 45 39 39
13 19 35 74 65 61 58 65 61 58 61 61 65 68 65 65 61 61 61 61 61 58 61 65 58 55 58 55 58 61 55 48 48 32 16 16 16 26 48 52 55 32 29
10 16 39 68 68 61 58 61 58 58 61 65 58 61 61 61 61 61 58 58 61 58 55 61 58 55 55 55 65 58 48 52 39 13 6 6 10 19 45 55 52 39 26
10 16 42 58 68 68 61 65 68 68 61 65 71 58 61 61 58 52 52 52 55 58 55 58 65 65 61 58 55 52 58 52 19 6 6 10 16 35 39 52 48 42 39
16 26 35 58 74 65 65 65 61 61 58 65 65 65 58 58 55 55 55 55 52 52 55 55 55 58 58 55 48 52 48 32 16 3 6 6 19 32 39 45 48 45 29
19 26 26 42 48 55 61 65 61 55 55 58 61 55 58 55 55 58 61 65 58 55 61 55 52 48 55 52 52 52 55 48 26 10 6 10 19 45 39 32 35 35 23
16 23 23 26 29 26 35 55 65 61 52 48 55 61 61 65 61 58 61 61 68 68 58 58 58 58 55 55 48 45 55 42 23 13 16 19 26 35 39 39 39 32 32
13 16 16 16 16 16 16 39 45 48 52 45 45 58 58 32 29 35 45 58 61 55 61 61 61 65 58 55 58 48 39 23 16 10 13 26 39 39 39 45 42 45 42
13 13 16 16 16 16 23 19 19 19 19 16 13 16 23 19 10 32 42 48 52 55 68 68 71 71 55 35 29 32 16 16 19 13 13 32 45 48 45 48 32 29 39
6 13 13 13 10 10 13 13 19 16 16 16 13 13 13 19 13 16 16 19 16 26 26 32 32 19 19 26 19 10 6 13 16 19 19 32 48 48 42 45 32 29 29
6 10 13 13 10 6 10 10 10 10 13 16 13 13 13 19 13 10 10 6 6 10 13 13 13 10 16 13 16 13 13 16 16 16 16 39 52 48 48 39 42 35 32
6 6 6 6 6 6 10 6 10 10 6 10 10 13 13 13 6 10 6 10 6 10 10 13 13 10 13 10 10 10 13 13 16 16 16 29 48 52 42 39 35 39 35
3 3 3 3 3 3 3 6 6 3 3 3 6 16 10 10 6 10 10 6 6 10 10 10 13 13 3 10 10 10 16 16 13 13 16 23 35 35 35 45 45 48 45
3 3 3 3 3 3 6 6 6 6 3 3 6 6 10 6 6 3 13 6 6 6 6 10 10 6 3 6 10 6 10 10 13 10 6 6 16 26 39 32 39 48 58
0 0 3 6 3 6 6 6 6 6 6 6 13 10 6 10 6 3 6 13 6 6 6 10 10 10 10 10 10 10 10 13 13 10 13 10 13 13 13 29 39 45 48
3 3 3 6 6 6 6 6 6 6 6 6 10 13 6 6 13 10 10 6 3 10 10 10 10 10 13 13 16 13 13 13 13 10 10 10 6 6 6 16 29 48 48
6 0 3 3 3 3 6 6 6 10 10 10 6 10 10 3 16 10 10 10 10 6 6 10 13 16 13 16 23 19 16 13 6 6 6 6 6 6 3 3 6 26 39
10 6 3 10 10 6 6 6 10 10 6 6 13 16 19 16 13 10 16 13 10 10 6 10 16 16 16 16 16 19 16 6 6 6 6 3 3 3 3 0 0 3 10
13 6 6 13 10 10 6 6 10 10 6 6 6 13 19 16 13 16 10 13 6 10 6 10 19 19 19 16 13 10 10 6 6 6 10 10 0 3 3 3 6 3 3
6 13 10 13 13 16 13 10 6 10 10 10 13 13 10 19 19 19 16 6 6 10 10 16 19 19 19 13 10 10 6 6 6 6 6 6 3 10 10 10 13 13 10
6 6 10 13 6 6 6 6 10 10 10 10 10 10 10 10 23 23 19 13 10 13 10 13 23 19 19 16 10 10 10 6 13 13 6 3 0 3 3 10 10 10 6
13 16 16 10 10 10 10 10 10 10 3 0 3 6 13 13 13 13 13 13 13 13 13 13 23 19 19 16 13 10 10 10 10 13 10 10 3 3 3 3 6 6 10
10 23 19 13 6 6 10 6 3 0 3 3 10 10 13 13 13 13 13 13 10 13 13 16 23 26 19 19 19 10 10 13 10 10 13 10 10 6 3 3 0 3 3
Height
5879 5879 5879 5879 5879 5878 5878 5878 5877 5878 5880 5882 5883 5884 5885 5886 5887 5888 5889 5889 5889 5890 5890 5890 5890 5890 5890 5890 5891 5891 5891 5891 5890 5890 5890 5891 5891 5891 5891 5891 5891 5891 5891
5880 5880 5880 5880 5880 5880 5880 5880 5880 5881 5882 5883 5884 5885 5886 5887 5888 5889 5889 5889 5890 5890 5891 5891 5891 5891 5891 5890 5891 5891 5890 5890 5890 5890 5890 5890 5890 5890 5890 5890 5890 5890 5890
5882 5881 5881 5881 5881 5881 5881 5881 5882 5882 5883 5884 5885 5886 5887 5888 5889 5889 5890 5890 5890 5891 5891 5891 5891 5891 5891 5891 5891 5890 5890 5890 5890 5890 5890 5890 5890 5890 5890 5890 5890 5890 5890
5883 5883 5882 5882 5882 5882 5882 5883 5883 5884 5885 5885 5886 5887 5888 5889 5889 5890 5890 5890 5891 5891 5891 5892 5892 5892 5891 5891 5891 5891 5890 5890 5890 5890 5890 5890 5890 5890 5890 5889 5889 5889 5889
5884 5884 5883 5883 5883 5884 5884 5884 5885 5885 5886 5886 5887 5888 5889 5889 5890 5890 5891 5891 5892 5892 5892 5892 5892 5892 5892 5892 5892 5891 5891 5890 5890 5890 5889 5889 5889 5889 5889 5889 5889 5889 5889
5885 5885 5885 5885 5885 5885 5885 5886 5886 5886 5887 5887 5888 5889 5889 5890 5890 5891 5891 5892 5892 5892 5892 5892 5892 5892 5892 5892 5892 5891 5891 5890 5890 5889 5889 5889 5889 5889 5889 5889 5889 5889 5889
5886 5886 5886 5886 5886 5886 5887 5887 5887 5887 5888 5888 5889 5889 5890 5890 5891 5891 5891 5892 5892 5892 5892 5892 5892 5892 5892 5892 5891 5891 5891 5890 5889 5889 5888 5888 5888 5888 5888 5888 5888 5888 5888
5888 5887 5887 5887 5887 5888 5888 5888 5888 5889 5889 5889 5890 5890 5890 5890 5890 5891 5891 5891 5892 5892 5892 5892 5892 5892 5892 5891 5891 5890 5890 5889 5889 5889 5888 5887 5887 5887 5887 5887 5887 5887 5887
5889 5888 5888 5888 5889 5889 5889 5889 5890 5890 5890 5890 5890 5890 5890 5890 5890 5891 5891 5891 5891 5892 5892 5892 5892 5892 5891 5891 5890 5890 5889 5889 5888 5888 5887 5886 5886 5886 5885 5885 5885 5886 5885
5890 5889 5890 5890 5890 5890 5890 5890 5890 5890 5890 5891 5891 5890 5890 5890 5890 5890 5890 5891 5891 5891 5891 5891 5891 5891 5891 5890 5890 5889 5889 5888 5888 5887 5887 5886 5885 5885 5884 5884 5884 5884 5884
5891 5891 5891 5891 5891 5891 5891 5890 5890 5891 5891 5891 5891 5891 5891 5890 5890 5890 5890 5890 5890 5890 5891 5891 5891 5890 5890 5890 5889 5889 5888 5887 5887 5886 5885 5885 5884 5884 5883 5883 5883 5883 5882
5892 5892 5892 5892 5891 5891 5891 5891 5890 5891 5891 5891 5891 5891 5891 5890 5890 5890 5890 5890 5890 5890 5890 5890 5890 5889 5889 5889 5889 5888 5887 5886 5886 5885 5884 5883 5883 5882 5882 5882 5881 5881 5881
5893 5893 5892 5892 5892 5892 5892 5891 5890 5891 5891 5891 5891 5891 5891 5891 5891 5890 5890 5889 5889 5889 5889 5889 5889 5888 5888 5888 5887 5887 5886 5885 5885 5884 5883 5882 5882 5881 5881 5880 5880 5879 5879
5893 5893 5893 5892 5892 5892 5892 5892 5891 5891 5891 5891 5891 5891 5891 5891 5891 5890 5890 5889 5889 5888 5888 5888 5888 5887 5887 5886 5886 5885 5885 5884 5884 5883 5882 5881 5881 5880 5879 5878 5878 5877 5877
5894 5894 5893 5893 5892 5892 5892 5892 5892 5892 5891 5891 5891 5891 5891 5891 5890 5890 5889 5889 5888 5888 5887 5887 5886 5886 5885 5885 5883 5883 5883 5882 5882 5881 5881 5880 5879 5878 5877 5877 5876 5875 5874
5895 5894 5894 5893 5893 5893 5892 5892 5892 5891 5891 5891 5891 5891 5891 5890 5890 5889 5888 5888 5887 5887 5886 5886 5885 5884 5883 5882 5882 5881 5881 5880 5880 5879 5879 5878 5877 5876 5875 5875 5874 5873 5872
5895 5895 5894 5893 5893 5893 5893 5892 5892 5892 5891 5891 5891 5891 5890 5890 5889 5889 5888 5887 5886 5885 5884 5884 5883 5882 5881 5881 5880 5880 5879 5878 5877 5877 5876 5876 5875 5874 5873 5872 5871 5870 5869
5895 5895 5894 5893 5893 5893 5893 5892 5892 5892 5891 5891 5890 5890 5890 5889 5889 5888 5887 5886 5885 5884 5883 5882 5881 5880 5879 5879 5878 5877 5876 5876 5875 5874 5874 5873 5872 5872 5871 5870 5868 5867 5866
5896 5895 5894 5893 5893 5893 5893 5892 5892 5891 5891 5890 5890 5889 5889 5888 5887 5887 5886 5885 5883 5882 5881 5880 5879 5878 5877 5877 5876 5875 5874 5873 5872 5872 5871 5870 5869 5869 5868 5867 5865 5864 5864
5896 5895 5894 5893 5893 5892 5892 5892 5891 5891 5891 5890 5889 5888 5888 5887 5886 5885 5884 5883 5882 5881 5879 5878 5877 5876 5876 5875 5874 5873 5872 5870 5869 5869 5868 5867 5866 5865 5864 5864 5863 5862 5861
5896 5895 5894 5893 5893 5892 5892 5891 5890 5890 5889 5889 5888 5887 5886 5885 5884 5884 5883 5881 5880 5879 5878 5877 5875 5874 5873 5872 5872 5871 5869 5868 5867 5866 5865 5864 5863 5862 5861 5860 5859 5858 5857
5896 5895 5894 5893 5892 5892 5891 5890 5889 5889 5888 5887 5886 5886 5885 5883 5882 5882 5881 5879 5878 5877 5876 5874 5873 5872 5871 5870 5869 5868 5866 5866 5863 5862 5861 5860 5859 5858 5857 5855 5855 5854 5852
5896 5894 5893 5892 5891 5890 5890 5889 5888 5887 5887 5886 5885 5884 5883 5882 5880 5879 5878 5877 5876 5875 5873 5872 5871 5870 5869 5867 5865 5864 5863 5862 5860 5859 5857 5856 5855 5853 5852 5851 5850 5849 5848
5895 5894 5892 5891 5890 5889 5888 5888 5887 5886 5885 5884 5883 5882 5881 5880 5878 5877 5876 5874 5873 5872 5871 5870 5868 5867 5866 5864 5862 5861 5859 5858 5856 5855 5854 5852 5850 5848 5847 5846 5845 5844 5843
5894 5893 5891 5890 5889 5888 5887 5886 5885 5884 5884 5883 5882 5881 5880 5878 5876 5875 5873 5872 5871 5869 5868 5867 5865 5864 5862 5861 5859 5857 5856 5854 5852 5850 5849 5847 5845 5843 5842 5840 5839 5838 5837
5894 5892 5891 5889 5888 5887 5886 5885 5884 5883 5882 5881 5880 5878 5877 5875 5873 5871 5870 5868 5867 5866 5865 5863 5862 5860 5858 5857 5855 5853 5852 5850 5847 5845 5844 5842 5840 5838 5837 5835 5833 5832 5831
Wind_Speed
8 8 8 9 9 9 9 9 10 10 9 8 8 8 7 7 6 5 4 4 3 4 4 3 3 3 2 1 1 1 1 1 0 1 1 1 1 1 2 2 2 3 3
8 7 8 9 9 9 9 9 10 10 9 8 8 8 7 7 6 5 4 4 4 4 4 4 4 4 3 2 2 1 1 1 1 1 2 2 2 3 2 2 2 3 4
8 7 8 8 8 8 8 9 9 9 9 8 7 7 6 6 6 5 5 4 4 4 4 4 4 4 3 3 2 1 1 1 2 2 2 2 2 3 3 2 2 2 3
7 7 8 8 8 8 8 9 9 9 8 7 7 6 6 6 5 5 5 4 4 4 4 3 3 3 3 3 2 2 2 2 2 3 2 3 3 3 3 3 3 2 2
8 8 8 8 9 9 8 9 8 8 7 7 6 6 6 5 5 5 4 4 4 4 3 3 2 3 3 3 3 3 2 3 4 4 3 3 3 3 3 3 3 3 4
8 9 9 9 9 9 9 9 8 7 7 7 6 6 5 5 4 4 4 3 3 3 3 2 2 2 3 3 3 3 3 3 4 4 3 3 2 2 3 3 4 4 4
9 9 9 9 9 9 9 9 8 7 7 7 6 6 5 4 4 3 3 2 2 2 2 2 2 2 3 3 3 3 3 4 4 4 4 4 3 3 4 4 5 5 5
8 9 9 9 8 8 8 8 7 6 6 6 6 5 4 4 3 2 2 2 2 2 2 1 2 2 3 3 3 3 4 4 4 4 3 4 4 4 4 4 5 5 5
8 8 9 8 8 8 7 7 7 7 6 5 5 4 4 4 3 2 1 1 1 2 1 1 2 2 3 3 3 4 4 4 4 4 4 4 4 5 4 5 5 6 6
8 8 9 8 8 8 7 7 6 6 6 5 5 5 3 3 3 1 1 1 1 1 1 1 2 2 3 4 4 4 4 5 5 5 5 5 5 5 5 5 6 6 7
8 8 8 7 7 7 7 6 6 6 6 5 5 5 4 3 3 2 1 1 1 1 1 1 2 2 3 4 4 4 5 5 6 6 5 6 5 5 6 6 7 7 8
7 7 7 6 6 6 6 6 6 6 5 4 4 5 4 4 3 3 2 1 1 2 2 2 3 3 4 4 4 5 5 6 6 6 5 5 5 5 6 7 7 7 8
7 6 6 6 6 6 6 6 6 6 5 4 4 5 4 4 3 2 2 2 1 2 2 3 3 4 5 5 5 5 5 6 7 6 6 5 5 6 7 7 7 7 8
7 7 6 6 6 6 5 6 6 5 5 5 4 4 4 4 3 2 2 2 2 2 3 3 4 4 5 5 6 6 6 7 7 6 6 6 6 6 7 7 7 7 8
7 7 6 5 5 5 5 5 5 5 4 4 4 3 3 3 3 3 3 3 3 3 4 5 6 6 6 6 6 6 7 7 7 7 7 7 7 7 7 7 7 8 8
6 5 5 5 5 4 4 4 4 4 4 3 3 3 3 3 4 4 4 4 4 4 5 5 6 7 7 7 7 7 8 8 8 8 8 8 7 7 7 8 8 9 9
5 5 5 5 4 4 4 4 3 3 3 3 4 4 4 4 4 5 5 5 5 5 5 6 7 7 7 7 7 8 9 9 9 9 8 8 8 8 9 9 10 10 11
5 5 4 4 5 5 4 4 3 4 4 4 5 5 5 5 5 5 6 6 6 6 6 6 7 7 8 8 8 9 9 9 10 10 9 10 9 9 9 10 10 11 12
6 6 5 5 5 5 5 5 4 4 4 4 5 5 6 6 6 6 7 7 7 7 7 7 7 7 8 8 9 9 10 10 11 11 11 10 10 10 10 11 11 12 13
6 6 6 5 5 6 6 5 4 4 4 5 5 5 6 7 7 7 7 8 8 9 9 9 8 8 9 9 10 10 10 10 11 12 12 12 12 12 11 12 12 13 13
6 6 6 6 5 5 6 5 5 5 5 5 5 6 7 8 8 8 8 8 8 9 9 9 9 9 9 10 12 12 13 13 12 12 13 13 13 14 14 13 14 14 14
5 6 6 6 5 5 6 6 6 6 6 6 6 7 8 8 8 8 9 9 9 9 10 10 11 11 11 12 13 14 13 14 13 13 14 15 15 15 15 16 16 16 16
6 6 7 6 6 6 6 6 6 6 7 7 8 8 9 9 9 8 9 10 10 10 11 11 12 13 13 14 14 14 14 14 16 17 16 16 16 16 17 17 17 17 17
7 7 7 6 6 7 7 7 8 7 7 8 9 9 10 10 10 10 10 10 11 11 12 12 13 14 15 15 15 15 15 16 17 18 18 18 18 18 18 18 18 19 19
8 9 9 8 7 7 8 8 9 8 9 10 11 11 12 12 11 11 12 11 11 12 13 14 15 15 15 15 15 16 17 18 19 19 19 18 19 20 19 19 20 21 21
8 9 10 9 8 9 9 9 9 9 10 11 12 13 13 13 12 12 13 13 13 14 15 16 16 16 16 17 17 18 19 20 20 21 20 20 20 21 21 21 21 21 22
Wind_Direction
84 83 81 82 85 88 88 88 93 102 105 109 112 111 107 103 109 109 106 109 94 91 89 81 73 81 79 89 81 62 55 28 259 239 251 236 231 248 259 258 252 236 229
81 82 80 80 84 87 90 90 93 98 102 105 109 106 100 96 98 102 105 107 107 106 100 88 72 68 61 69 72 58 38 347 299 274 267 257 255 250 253 249 250 238 236
78 78 78 81 84 87 89 89 93 99 102 103 102 99 97 93 93 96 104 109 112 111 106 94 80 65 60 59 53 20 6 351 324 298 264 262 263 257 253 247 245 243 243
78 77 81 80 83 88 89 87 89 97 101 104 106 102 98 94 92 101 98 104 104 100 101 94 77 63 63 51 37 20 355 341 319 326 294 278 279 272 269 261 252 251 274
83 82 84 83 85 88 87 85 86 92 100 106 112 109 102 95 91 94 87 91 86 80 101 100 74 57 51 36 20 6 358 342 324 322 321 301 284 286 281 272 267 270 280
84 83 84 88 89 88 86 84 82 86 94 101 109 108 99 93 89 92 85 92 82 74 73 68 55 43 35 19 5 351 344 341 339 327 326 320 299 294 294 285 277 276 279
83 84 83 90 92 90 88 89 87 84 89 96 99 98 94 91 85 90 88 84 78 55 39 35 36 37 21 5 355 345 338 335 342 337 320 307 300 297 300 299 291 283 275
81 82 84 86 88 87 85 85 84 81 85 88 90 90 88 81 74 77 74 69 58 42 30 28 20 21 5 357 344 338 334 332 331 325 318 309 307 300 291 289 291 284 283
82 81 82 85 85 84 86 85 83 85 88 86 80 76 83 72 60 56 42 19 9 11 11 15 13 4 1 354 343 340 338 332 330 321 318 317 313 308 294 286 279 277 282
81 80 81 82 83 85 85 86 86 83 84 79 66 57 62 58 51 48 24 1 336 347 358 350 358 356 350 351 344 340 332 328 328 330 322 317 309 301 295 289 285 283 281
78 79 79 78 79 81 79 79 82 79 82 81 67 53 60 48 44 56 37 304 267 283 303 323 331 325 332 336 337 337 325 320 319 320 317 308 304 301 296 290 288 287 282
72 75 76 76 75 73 73 74 79 76 76 78 62 54 56 49 53 57 49 9 305 287 303 309 318 305 308 312 316 323 325 322 322 319 314 309 300 295 293 289 285 282 287
66 71 73 74 74 73 73 70 73 67 67 74 68 55 52 54 53 53 38 22 354 313 298 294 297 300 305 306 307 317 321 325 323 321 313 307 299 293 295 296 289 283 290
67 67 71 74 75 72 70 69 66 59 63 67 63 49 43 39 41 26 0 349 338 322 312 307 300 302 300 306 303 311 318 323 322 322 316 309 304 299 296 293 289 287 288
63 64 64 68 71 66 63 65 63 59 58 58 56 53 31 18 13 3 354 341 328 315 307 308 303 299 296 301 307 306 308 309 314 314 312 310 306 301 297 294 289 286 285
51 54 53 57 58 56 49 50 44 45 42 34 27 23 11 0 2 353 352 343 332 322 314 310 307 304 301 297 301 302 304 301 301 303 303 308 307 301 299 296 292 286 284
37 37 42 42 40 38 41 35 30 34 38 37 27 9 355 351 352 352 342 337 334 330 319 307 302 302 300 295 296 298 296 292 295 294 299 302 301 299 298 299 296 290 287
26 26 32 30 23 19 21 13 14 23 28 23 12 359 348 343 341 337 331 331 329 326 326 315 308 308 304 300 293 297 300 298 295 296 296 296 297 295 294 296 298 293 289
23 24 28 25 22 21 16 7 10 11 8 1 357 350 343 338 331 330 327 324 325 325 322 319 313 309 306 302 303 301 303 305 302 296 293 291 293 293 294 296 297 295 293
15 13 16 10 12 8 0 351 341 344 346 344 342 337 332 331 325 322 324 324 324 323 323 322 318 310 304 300 304 305 303 302 303 299 295 293 294 293 292 292 296 297 294
11 11 6 6 4 356 344 335 329 330 327 329 329 327 327 328 322 320 319 321 320 322 319 317 316 313 307 303 303 303 299 296 297 301 299 298 299 296 293 290 291 293 295
17 13 12 4 354 346 338 331 327 323 322 325 322 318 319 319 314 314 315 314 312 314 316 315 314 311 307 304 303 302 301 298 295 298 300 300 300 298 295 291 287 288 291
10 358 356 355 353 346 339 334 328 322 320 316 314 314 315 315 310 309 309 309 308 309 309 310 310 308 306 306 306 304 302 297 294 295 298 298 295 293 291 292 288 287 289
6 355 351 343 344 342 338 332 326 316 310 310 311 313 318 316 310 309 307 305 302 303 304 305 305 304 304 305 304 304 305 304 300 297 297 297 295 292 290 290 289 285 286
348 345 344 334 330 333 336 330 322 316 316 317 316 312 314 315 313 310 306 302 299 299 300 303 302 301 303 304 304 303 303 304 303 301 300 299 296 293 291 288 285 285 285
333 337 335 331 329 328 325 321 319 317 315 315 313 312 310 309 308 305 299 296 295 295 296 296 299 303 303 302 302 301 302 303 304 301 299 297 297 295 293 291 288 286 285